Location: Oshawa
(43.9000°N, 78.8670°W)
Time: 23:37:18
(UTC-04:00)

Cosmos 1821 Rocket - Visible Passes

Search period start: 25 September 2016 00:00
Search period end: 05 October 2016 00:00
Orbit: 946 x 1004 km, 82.9° (Epoch: 24 September)

Date Brightness Start Highest point End Pass type
(mag) Time Alt. Az. Time Alt. Az. Time Alt. Az.
25 Sep 4.9 03:33:45 10° N 03:39:50 45° ENE 03:41:03 40° ESE visible
25 Sep 4.7 05:19:32 10° NNW 05:24:59 31° W 05:25:37 30° W visible
26 Sep 6.5 02:15:56 10° NE 02:18:47 13° ENE 02:20:27 12° ENE visible
26 Sep 4.1 03:58:53 10° N 04:05:02 76° NE 04:05:02 76° NE visible
26 Sep 5.4 05:45:55 10° NW 05:49:36 17° WNW 05:49:36 17° WNW visible
27 Sep 5.9 02:39:46 10° NNE 02:44:38 23° ENE 02:44:38 23° ENE visible
27 Sep 4.4 04:24:16 10° NNW 04:29:13 51° NW 04:29:13 51° NW visible
28 Sep 5.4 03:04:27 10° N 03:08:57 34° NE 03:08:57 34° NE visible
28 Sep 5.1 04:49:58 10° NNW 04:53:32 28° NW 04:53:32 28° NW visible
29 Sep 6.7 01:47:28 10° NE 01:48:46 11° NE 01:48:46 11° NE visible
29 Sep 5.1 03:29:31 10° N 03:33:22 38° N 03:33:22 38° N visible
29 Sep 5.7 05:16:09 10° NW 05:17:59 16° NW 05:17:59 16° NW visible
30 Sep 6.3 02:10:39 10° NNE 02:13:17 18° NE 02:13:17 18° NE visible
30 Sep 5.3 03:54:51 10° NNW 03:57:53 30° NNW 03:57:53 30° NNW visible
01 Oct 6.0 02:35:12 10° N 02:37:52 22° NNE 02:37:52 22° NNE visible
01 Oct 5.7 04:20:27 10° NNW 04:22:29 20° NNW 04:22:29 20° NNW visible
02 Oct 5.9 03:00:11 10° N 03:02:31 23° N 03:02:31 23° N visible
02 Oct 6.1 04:46:28 10° NNW 04:47:08 12° NW 04:47:08 12° NW visible
03 Oct 6.6 01:41:36 10° NNE 01:42:35 13° NNE 01:42:35 13° NNE visible
03 Oct 6.0 03:25:26 10° N 03:27:12 20° N 03:27:12 20° N visible
04 Oct 6.5 02:05:58 10° NNE 02:07:19 15° NNE 02:07:19 15° NNE visible
04 Oct 6.2 03:50:58 10° NNW 03:51:56 15° NNW 03:51:56 15° NNW visible
